Regional Weather Roundup
Issued by NWS Sterling, VA

Home | Current Version | Previous Version | Graphics & Text | Print | Product List | Glossary Off
Versions: 1 2 3 4 5 6 7 8 9 10 11 12 13 14 15 16 17 18 19 20 21 22 23 24 25 26 27 28 29 30 31 32 33 34 35 36 37 38 39 40 41 42 43 44 45 46 47 48 49 50

000
ASUS41 KLWX 081110
RWRLWX

REGIONAL WEATHER ROUNDUP
NATIONAL WEATHER SERVICE BALTIMORE MD/WASHINGTON DC
600 AM EST THU DEC 08 2016

Note: "FAIR" indicates few or no clouds below 12,000 feet
with no significant weather and/or obstructions to visibility.
 TC=TEMPERATURE CELSIUS

 * =Non NWS site. Station does not report precipitation (e.g. rain,
    snow, etc.), thunder, or fog.

DCZ001-MDZ009-015-VAZ040>042-051-053>054-081200-
WASHINGTON METRO

CITY           SKY/WX    TMP DP  RH WIND       PRES   REMARKS
WASHINGTON NAT CLOUDY    41  34  76 N5        30.05S
DULLES         CLOUDY    36  31  82 CALM      30.04R
ANDREWS AFB    CLOUDY    38  35  89 CALM      30.03R
FT BELVOIR     CLOUDY    37  35  92 CALM      30.05R
QUANTICO       CLOUDY    39  36  89 NW5       30.06R
COLLEGE PARK*  CLOUDY    34  32  93 CALM      30.04S
LEESBURG*      CLOUDY    37  36  93 MISG      30.04S
MANASSAS*        N/A    N/A N/A N/A MISG        N/A
GAITHERSBURG*  CLOUDY    34  30  86 CALM      30.07R

$$

MDZ006>007-011-014-081200-
BALTIMORE METRO

CITY           SKY/WX    TMP DP  RH WIND       PRES   REMARKS
BWI AIRPORT    CLOUDY    36  34  92 CALM      30.03S
MD SCIENCE CTR   N/A     41  27  57 MISG      30.05S
MARTIN STATE   CLOUDY    36  36 100 CALM      30.05
ANNAPOLIS      CLOUDY    39  33  79 CALM      30.04S
FORT MEADE*    CLOUDY    32  32 100 CALM      30.06S

$$

MDZ012-015-019>023-081200-
MARYLAND EASTERN SHORE

CITY           SKY/WX    TMP DP  RH WIND       PRES   REMARKS
OCEAN CITY     PTCLDY    35  34  96 W5        30.04S FOG
SALISBURY      FOG       32  31  96 CALM      30.03F VSB 1/2
BAY BRIDGE AP* CLOUDY    43  32  65 W5        30.04S
EASTON*        MOCLDY    34  32  92 CALM      30.07S

$$

MDZ017>025-081200-
SOUTHERN MARYLAND

CITY           SKY/WX    TMP DP  RH WIND       PRES   REMARKS
PATUXENT RIVER CLOUDY    39  37  92 W3        30.03F
ST INIGOES     CLOUDY    39  38  96 CALM      30.03F
LEONARDTOWN*   CLOUDY    36  34  93 CALM      30.04F

$$

MDZ003>005-081200-
NORTH CENTRAL MARYLAND

CITY           SKY/WX    TMP DP  RH WIND       PRES   REMARKS
FREDERICK*     CLOUDY    34  34 100 CALM      30.06S
HAGERSTOWN APT CLOUDY    37  23  56 S5        30.02S
WESTMINSTER*   CLOUDY    36  23  60 SW5       30.00F

$$

MDZ501>502-081200-
WESTERN MARYLAND

CITY           SKY/WX    TMP DP  RH WIND       PRES   REMARKS
OAKLAND*       CLOUDY    27  19  74 W9        29.96S WCI  17
CUMBERLAND*    NOT AVBL

$$

VAZ025>031-081200-
SHENANDOAH VALLEY

CITY           SKY/WX    TMP DP  RH WIND       PRES   REMARKS
WINCHESTER*    CLOUDY    32  28  86 S5        30.03S
FRONT ROYAL*   CLOUDY    32  32 100 CALM      30.03S
LURAY*         CLOUDY    32  32 100 CALM      30.04S
NEW MARKET*    CLOUDY    30  28  91 CALM      30.04R
STAUNTON*      CLOUDY    32  31  96 CALM      30.06R
WAYNESBORO*    CLOUDY    35  29  80 NW6       30.03R

$$

WVZ021-048>050-054>055-081200-
EASTERN WEST VIRGINIA PANHANDLE

CITY           SKY/WX    TMP DP  RH WIND       PRES   REMARKS
MARTINSBURG    CLOUDY    34  27  75 CALM      30.03R
PETERSBURG*    PTCLDY    29  27  91 CALM      30.05R

$$

VAZ036>039-050-081200-
CENTRAL FOOTHILLS

CITY           SKY/WX    TMP DP  RH WIND       PRES   REMARKS
CHARLOTTESVILL CLOUDY    38  34  85 CALM      30.02R
CULPEPER*      CLOUDY    36  34  93 CALM      30.05S
ORANGE*          N/A     36  36 100 CALM      30.05R
GORDONSVILLE*  CLOUDY    35  35 100 CALM      30.02S
WARRENTON*     CLOUDY    38  32  81 CALM      30.04R

$$

VAZ055>057-081200-
NORTH AND CENTRAL PIEDMONT

CITY           SKY/WX    TMP DP  RH WIND       PRES   REMARKS
FREDERICKSBRG* CLOUDY    37  37 100 CALM      30.04R
STAFFORD*      CLOUDY    35  35 100 CALM      30.08R

$$

NCZ024-NYZ072-PAZ021-071-VAZ022-071-081200-
OTHER REGIONAL OBSERVATIONS

CITY           SKY/WX    TMP DP  RH WIND       PRES   REMARKS
NEW YORK CITY  PTCLDY    41  28  60 VRB3      30.00R
PHILADELPHIA   MOCLDY    37  28  70 SW7       30.04R
PITTSBURGH     CLOUDY    33  24  69 SW7       30.01F
ROANOKE        CLOUDY    42  26  53 NW9       30.07R
RICHMOND       CLOUDY    40  38  93 CALM      30.03S
RALEIGH        CLOUDY    49  45  86 CALM      30.02S

$$

ANZ530>537-081200-
MARINE OBSERVATIONS

STATION/POSITION TIME  TEMP    WIND        PRES
                       AIR SEA DIR/SP/G
                 (UTC) (F)     (DEG/KT/KT) (MB)
THOMAS PT LIGHT  1100   42 48  320/  5/  6   N/A
BALT KEY BRIDGE  1048   40     230/  3/  3 1017.3S
COVE POINT       1048   42      CALM  /  2 1017.4F
LEWISETTA        1048   42 48     CALM     1016.6F
SOLOMONS ISLAND  1048      50  280/  1/  3   N/A
PINEY POINT      1048           20/  1/  2   N/A

$$




USA.gov is the U.S. government's official web portal to all federal, state and local government web resources and services.